Regional Weather Roundup
Issued by NWS Little Rock, AR

Home | Current Version | Previous Version | Text Only | Print | Product List | Glossary On
Versions: 1 2 3 4 5 6 7 8 9 10 11 12 13 14 15 16 17 18 19 20 21 22 23 24 25 26 27
000
ASUS44 KLZK 311405
RWRLZK

WEATHER ROUNDUP FOR ARKANSAS
NATIONAL WEATHER SERVICE LITTLE ROCK AR
900 AM CDT TUE MAY 31 2016

NOTE: "FAIR" INDICATES FEW OR NO CLOUDS BELOW 12,000 FEET WITH NO
SIGNIFICANT WEATHER AND/OR OBSTRUCTIONS TO VISIBILITY.

ARZ001-003-010-029-311500-
NORTHWEST ARKANSAS

CITY           SKY/WX    TMP DP  RH WIND       PRES   REMARKS
FAYETTEVILLE   CLOUDY    69  66  90 SE5       29.97R
FORT SMITH     MOSUNNY   70  63  78 E6        29.95R
HARRISON       CLOUDY    68  64  87 SE6       30.00R
BENTONVILLE    MOSUNNY   70  61  73 CALM      29.98R
ROGERS         MOSUNNY   69  65  86 VRB3      29.99R
SILOAM SPGS    CLOUDY    70  57  64 S5        29.98R
HIGHFILL       CLOUDY    69  66  90 S5        29.97R
SPRINGDALE     SUNNY     70  64  83 S5        29.99R
$$

ARZ004-005-016-311500-
NORTH CENTRAL ARKANSAS

CITY           SKY/WX    TMP DP  RH WIND       PRES   REMARKS
BATESVILLE     CLOUDY    70  66  88 SE6       29.99S
FLIPPIN        CLOUDY   N/A N/A N/A CALM      29.97R
MTN HOME       MOSUNNY   68  64  87 VRB6      29.99R
$$

ARZ040-041-311500-
WEST CENTRAL ARKANSAS

CITY           SKY/WX    TMP DP  RH WIND       PRES   REMARKS
MENA           CLOUDY    70  68  94 CALM      29.98R
MOUNT IDA      PTSUNNY   71  66  84 CALM      29.95R
$$

ARZ009-017-025-026-028-311500-
NORTHEAST ARKANSAS

CITY           SKY/WX    TMP DP  RH WIND       PRES   REMARKS
CORNING          N/A     72  70  94 S6        30.00S
JONESBORO      CLOUDY    71  67  87 CALM      29.98F
NEWPORT        CLOUDY    72  70  93 SE5       29.99F
WALNUT RIDGE   CLOUDY    72  64  78 S8        29.99R
BLYTHEVILLE    CLOUDY    72  71  97 CALM      29.99F
NW BLYTHEVILLE CLOUDY    73  68  83 SW5       29.98
$$

ARZ022-023-033-042-044-311500-
CENTRAL ARKANSAS

CITY           SKY/WX    TMP DP  RH WIND       PRES   REMARKS
LITTLE ROCK    CLOUDY    72  67  84 E3        29.97R
N LITTLE ROCK    N/A     70  68  93 E5        29.95R
JACKSONVILLE   PTSUNNY   70  70 100 E3        29.96S
SEARCY         CLOUDY    70  68  94 E3        29.99S
HOT SPRINGS    SUNNY     71  65  81 CALM      29.96R
RUSSELLVILLE   CLOUDY    70  63  78 E5        29.97R
CLINTON        CLOUDY    70  66  88 CALM      29.99S
$$

ARZ036-311500-
EAST ARKANSAS

CITY           SKY/WX    TMP DP  RH WIND       PRES   REMARKS
WEST MEMPHIS   CLOUDY    72  68  87 CALM      29.98R
$$

ARZ050-053-066-070-073-311500-
SOUTHWEST ARKANSAS

CITY           SKY/WX    TMP DP  RH WIND       PRES   REMARKS
ARKADELPHIA    PTSUNNY   70  69  96 VRB5      29.96R
CAMDEN         CLOUDY    70  66  88 CALM      29.95R
TEXARKANA      SUNNY     74  70  87 VRB3      29.94R
EL DORADO      MOSUNNY   72  69  90 E6        29.95R
DE QUEEN       CLOUDY    70  68  93 NE3       29.94R
$$

ARZ056-057-069-311500-
SOUTHEAST ARKANSAS

CITY           SKY/WX    TMP DP  RH WIND       PRES   REMARKS
PINE BLUFF       N/A     72  67  84 SE5       29.96
STUTTGART      CLOUDY    72  64  78 E8        29.97R
MONTICELLO     MOSUNNY   76  69  79 E6        29.95R

$$






USA.gov is the U.S. government's official web portal to all federal, state and local government web resources and services.